This is the latest recevied weather packets stored in our database for station/object K4WCH. If no packets are shown the sender has not sent any weather packets the latest 10 day(s).
| Time | Temp. | Humidity | Pressure | Rain* | Wind** | Luminosity | Snow |
|---|---|---|---|---|---|---|---|
| 1788021152 | 33.33° C | 60% | 1018.8 hPa | 0 mm | - | 1045 W/m² | - |
| 1788020847 | 33.89° C | 63% | 1018.9 hPa | 0 mm | - | 1116 W/m² | - |
| 1788020544 | 33.33° C | 64% | 1018.8 hPa | 0 mm | - | 1078 W/m² | - |
| 1788020238 | 32.22° C | 67% | 1019.1 hPa | 0 mm | - | 1077 W/m² | - |
| 1788019934 | 32.22° C | 66% | 1019.2 hPa | 0 mm | - | 270 W/m² | - |
| 1788019628 | 32.78° C | 63% | 1019 hPa | 0 mm | - | 247 W/m² | - |
| 1788019328 | 32.78° C | 63% | 1019 hPa | 0 mm | - | 1102 W/m² | - |
| 1788019026 | 33.33° C | 62% | 1019.3 hPa | 0 mm | - | 308 W/m² | - |
| 1788018721 | 32.78° C | 66% | 1019.2 hPa | 0 mm | - | 1172 W/m² | - |
| 1788018420 | 32.78° C | 64% | 1019.3 hPa | 0 mm | - | 242 W/m² | - |
| 1788018115 | 32.22° C | 65% | 1019.1 hPa | 0 mm | - | 349 W/m² | - |
| 1788017811 | 32.22° C | 64% | 1019.1 hPa | 0 mm | - | 251 W/m² | - |
| 1788017508 | 32.78° C | 63% | 1019.2 hPa | 0 mm | - | 978 W/m² | - |
| 1788017205 | 32.78° C | 65% | 1019.2 hPa | 0 mm | - | 946 W/m² | - |
| 1788016904 | 32.78° C | 64% | 1019.4 hPa | 0 mm | - | 961 W/m² | - |
| 1788016603 | 32.78° C | 65% | 1019.5 hPa | 0 mm | - | 814 W/m² | - |
| 1788016297 | 32.22° C | 65% | 1019.5 hPa | 0 mm | - | 886 W/m² | - |
| 1788015997 | 32.22° C | 66% | 1019.5 hPa | 0 mm | - | 865 W/m² | - |
| 1788015691 | 32.78° C | 67% | 1019.5 hPa | 0 mm | - | 837 W/m² | - |
| 1788015386 | 31.67° C | 69% | 1019.3 hPa | 0 mm | - | 839 W/m² | - |
| 1788015080 | 31.67° C | 68% | 1019.5 hPa | 0 mm | - | 147 W/m² | - |
| 1788014779 | 32.22° C | 68% | 1019.2 hPa | 0 mm | - | 759 W/m² | - |
| 1788014474 | 31.67° C | 70% | 1019.3 hPa | 0 mm | - | 738 W/m² | - |
| 1788014175 | 31.67° C | 68% | 1019.3 hPa | 0 mm | - | 704 W/m² | - |
| 1788013875 | 31.67° C | 70% | 1019.1 hPa | 0 mm | - | 693 W/m² | - |
* Rain latest hour (hover to see other rain measurements)
** Current wind speed in m/s (hover to see current wind gust speed)